sat.trackr.live / text

‹ back to catalog

ONEWEB-0055

NORAD 45443 · 2020-020V

PAYLOAD ACTIVE UNKNOWN

§ Identity

Operator
Country
UK
Launch date
2020-03-21
Launch site
TYMSC
Launch vehicle
Mass (kg)
RCS (m²)

Purposes: comms

External: N2YO · Heavens-Above · Gunter

§ Orbital elements

Epoch: 2026-05-25T03:10:09.206400Z

Period
109.81 min
Inclination
87.8914°
Eccentricity
0.0001692
Mean motion
13.11412783 rev/d
Perigee alt
1,216.4 km
Apogee alt
1,219.0 km
Semi-major
7,595.8 km
B*
6.6059e-4
RAAN
25.6527°
Arg perigee
80.7807°
Mean anomaly
279.3512°
Rev number
29,959

§ Raw data

ONEWEB-00551 45443U 20020V   26145.13205100  .00000247  00000+0  66059-3 0  99952 45443  87.8914  25.6527 0001692  80.7807 279.3512 13.11412783299598

JSON: /api/v1/satellites/45443 · /tle

For live sub-satellite position, see the globe view (requires WebGL).

§ Visibility from observer

Set your observer location to see the next 7 days of passes ≥ 10°. The values pass through the URL so the page stays shareable.

No JS? Fill the form by hand. The geolocation button needs JavaScript.